Location: Havenscourt
(37.7656°N, 122.1872°W)
Time: 22:19:47
(UTC+00:00)

Daily predictions for brighter satellites

Satellite Brightness Start Highest point End
(mag) Time Altitude Azimuth Time Altitude Azimuth Time Altitude Azimuth
DELTA 2 R/B(2) 3.0 12:00:57 11° WNW 12:02:43 66° N 12:04:21 10° E
CZ-4B R/B 3.5 12:05:34 10° W 12:05:34 10° W 12:05:43 10° W
Cosmos 990 Rocket 4.0 12:03:20 10° SSW 12:08:36 90° N 12:13:53 10° NNE
Cosmos 2341 Rocket 4.3 12:05:14 10° NNW 12:11:22 51° W 12:17:29 10° SSW
Cosmos 1378 3.9 12:08:11 10° NNW 12:11:30 31° W 12:14:48 10° SSW
GOES 2 Rocket 4.5 12:10:24 12° SW 12:12:52 18° SSW 12:15:47 10° SSE
ATLAS 3B R/B 3.0 12:10:59 10° NW 12:17:11 42° WSW 12:23:31 10° S
CENTAUR R/B 3.3 12:09:27 10° NW 12:17:29 57° WSW 12:25:55 10° S
Genesis I 4.0 12:15:40 10° SW 12:19:27 42° NW 12:23:21 10° NNE
Cosmos 2366 rocket 4.0 12:18:39 10° N 12:24:47 75° W 12:30:54 10° S
Okean O Rocket 4.4 12:22:45 10° NE 12:25:27 16° E 12:28:07 10° SE
Cosmos 2082 Rocket 4.2 12:22:34 10° SSE 12:27:08 26° ESE 12:31:42 10° NE
Cosmos 2218 Rocket 4.1 12:24:29 10° NNW 12:30:34 62° W 12:36:42 10° S
Cosmos 1680 Rocket 3.8 12:26:19 10° NNW 12:31:24 47° WSW 12:36:25 10° S
